Wetterdaten: Montag, 21.12.2015
Datum Zeit Temp. A. Feuchte A. Luftdruck Regen Wind Richtung Richtung Sonnenschein ET UV Solar Taupunkt Windchill Windben Empfang
21.12.2015 00:00 2,2 C 99 % 1026,6 hPa 0,0 l/m 5,3 km/h (1 Bft) O-NO 64 0 min 0,000 mm 0,0 UV-I 0 W/m 2,1 C 2,2 C 8,0 km/h (2 Bft) 97,44 %
21.12.2015 00:05 2,2 C 99 % 1026,5 hPa 0,0 l/m 5,3 km/h (1 Bft) O-NO 61 0 min 0,000 mm 0,0 UV-I 0 W/m 2,1 C 2,2 C 8,0 km/h (2 Bft) 97,22 %
21.12.2015 00:10 2,2 C 99 % 1026,4 hPa 0,0 l/m 7,2 km/h (2 Bft) O 91 0 min 0,000 mm 0,0 UV-I 0 W/m 2,1 C 1,4 C 12,9 km/h (3 Bft) 97,64 %
21.12.2015 00:15 2,2 C 99 % 1026,4 hPa 0,0 l/m 6,5 km/h (2 Bft) O-NO 76 0 min 0,000 mm 0,0 UV-I 0 W/m 2,1 C 2,1 C 12,9 km/h (3 Bft) 100,00 %
21.12.2015 00:20 2,2 C 99 % 1026,4 hPa 0,0 l/m 9,3 km/h (2 Bft) NO 53 0 min 0,000 mm 0,0 UV-I 0 W/m 2,1 C -0,5 C 14,5 km/h (3 Bft) 96,43 %
21.12.2015 00:25 2,2 C 99 % 1026,4 hPa 0,0 l/m 7,4 km/h (2 Bft) O-NO 70 0 min 0,000 mm 0,0 UV-I 0 W/m 2,1 C 1,2 C 12,9 km/h (3 Bft) 100,00 %
21.12.2015 00:30 2,2 C 99 % 1026,3 hPa 0,0 l/m 4,7 km/h (1 Bft) SO 130 0 min 0,000 mm 0,0 UV-I 0 W/m 2,1 C 2,2 C 9,7 km/h (2 Bft) 100,00 %
21.12.2015 00:35 2,2 C 99 % 1026,2 hPa 0,0 l/m 6,5 km/h (2 Bft) O-NO 76 0 min 0,000 mm 0,0 UV-I 0 W/m 2,1 C 2,1 C 11,3 km/h (2 Bft) 100,00 %
21.12.2015 00:40 2,2 C 99 % 1026,2 hPa 0,0 l/m 4,5 km/h (1 Bft) O-SO 119 0 min 0,000 mm 0,0 UV-I 0 W/m 2,1 C 2,2 C 8,0 km/h (2 Bft) 100,00 %
21.12.2015 00:45 2,1 C 99 % 1026,3 hPa 0,0 l/m 4,7 km/h (1 Bft) O-SO 105 0 min 0,000 mm 0,0 UV-I 0 W/m 2,0 C 2,1 C 8,0 km/h (2 Bft) 98,31 %
21.12.2015 00:50 2,1 C 99 % 1026,3 hPa 0,0 l/m 3,7 km/h (1 Bft) O-SO 109 0 min 0,000 mm 0,0 UV-I 0 W/m 2,0 C 2,1 C 9,7 km/h (2 Bft) 99,13 %
21.12.2015 00:55 2,1 C 99 % 1026,3 hPa 0,0 l/m 4,3 km/h (1 Bft) O 100 0 min 0,000 mm 0,0 UV-I 0 W/m 2,0 C 2,1 C 11,3 km/h (2 Bft) 98,25 %
21.12.2015 01:00 2,1 C 99 % 1026,3 hPa 0,0 l/m 4,1 km/h (1 Bft) O 88 0 min 0,000 mm 0,0 UV-I 0 W/m 2,0 C 2,1 C 9,7 km/h (2 Bft) 98,35 %
21.12.2015 01:05 2,1 C 99 % 1026,4 hPa 0,0 l/m 3,0 km/h (1 Bft) O 89 0 min 0,000 mm 0,0 UV-I 0 W/m 2,0 C 2,1 C 6,4 km/h (2 Bft) 100,00 %
21.12.2015 01:10 2,1 C 99 % 1026,3 hPa 0,0 l/m 3,4 km/h (1 Bft) O-NO 69 0 min 0,000 mm 0,0 UV-I 0 W/m 2,0 C 2,1 C 4,8 km/h (1 Bft) 98,33 %
21.12.2015 01:15 2,1 C 99 % 1026,2 hPa 0,0 l/m 4,7 km/h (1 Bft) NO 56 0 min 0,000 mm 0,0 UV-I 0 W/m 2,0 C 2,1 C 6,4 km/h (2 Bft) 100,00 %
21.12.2015 01:20 2,1 C 99 % 1026,2 hPa 0,0 l/m 5,8 km/h (2 Bft) O-NO 75 0 min 0,000 mm 0,0 UV-I 0 W/m 2,0 C 2,1 C 9,7 km/h (2 Bft) 99,08 %
21.12.2015 01:25 2,1 C 99 % 1026,1 hPa 0,0 l/m 5,0 km/h (1 Bft) NO 46 0 min 0,000 mm 0,0 UV-I 0 W/m 2,0 C 2,1 C 8,0 km/h (2 Bft) 100,00 %
21.12.2015 01:30 2,1 C 99 % 1026,2 hPa 0,0 l/m 1,8 km/h (1 Bft) NO 42 0 min 0,000 mm 0,0 UV-I 0 W/m 2,0 C 2,1 C 4,8 km/h (1 Bft) 97,46 %
21.12.2015 01:35 2,1 C 99 % 1026,2 hPa 0,0 l/m 3,5 km/h (1 Bft) O-NO 66 0 min 0,000 mm 0,0 UV-I 0 W/m 2,0 C 2,1 C 6,4 km/h (2 Bft) 100,00 %
21.12.2015 01:40 2,1 C 99 % 1026,2 hPa 0,0 l/m 4,5 km/h (1 Bft) NO 43 0 min 0,000 mm 0,0 UV-I 0 W/m 2,0 C 2,1 C 6,4 km/h (2 Bft) 97,46 %
21.12.2015 01:45 2,1 C 99 % 1026,1 hPa 0,0 l/m 5,1 km/h (1 Bft) NO 34 0 min 0,000 mm 0,0 UV-I 0 W/m 2,0 C 2,1 C 8,0 km/h (2 Bft) 95,65 %
21.12.2015 01:50 2,0 C 99 % 1026,1 hPa 0,0 l/m 4,0 km/h (1 Bft) N-NO 14 0 min 0,000 mm 0,0 UV-I 0 W/m 1,9 C 2,0 C 6,4 km/h (2 Bft) 96,03 %
21.12.2015 01:55 2,0 C 99 % 1026,2 hPa 0,0 l/m 2,5 km/h (1 Bft) N-NO 32 0 min 0,000 mm 0,0 UV-I 0 W/m 1,9 C 2,0 C 4,8 km/h (1 Bft) 98,26 %
21.12.2015 02:00 2,1 C 99 % 1026,2 hPa 0,0 l/m 2,2 km/h (1 Bft) N-NO 32 0 min 0,000 mm 0,0 UV-I 0 W/m 2,0 C 2,1 C 4,8 km/h (1 Bft) 97,32 %
21.12.2015 02:05 2,1 C 99 % 1026,1 hPa 0,0 l/m 3,9 km/h (1 Bft) NO 55 0 min 0,000 mm 0,0 UV-I 0 W/m 2,0 C 2,1 C 8,0 km/h (2 Bft) 95,93 %
21.12.2015 02:10 2,1 C 99 % 1026,1 hPa 0,0 l/m 5,4 km/h (1 Bft) O-NO 63 0 min 0,000 mm 0,0 UV-I 0 W/m 2,0 C 2,1 C 8,0 km/h (2 Bft) 97,39 %
21.12.2015 02:15 2,1 C 99 % 1026,1 hPa 0,0 l/m 5,2 km/h (1 Bft) O-NO 62 0 min 0,000 mm 0,0 UV-I 0 W/m 2,0 C 2,1 C 9,7 km/h (2 Bft) 99,15 %
21.12.2015 02:20 2,0 C 99 % 1026,1 hPa 0,0 l/m 5,9 km/h (2 Bft) NO 45 0 min 0,000 mm 0,0 UV-I 0 W/m 1,9 C 2,0 C 9,7 km/h (2 Bft) 98,31 %
21.12.2015 02:25 2,0 C 99 % 1026,1 hPa 0,0 l/m 3,6 km/h (1 Bft) NO 55 0 min 0,000 mm 0,0 UV-I 0 W/m 1,9 C 2,0 C 6,4 km/h (2 Bft) 98,31 %
21.12.2015 02:30 1,9 C 99 % 1026,1 hPa 0,0 l/m 1,6 km/h (1 Bft) O-NO 57 0 min 0,000 mm 0,0 UV-I 0 W/m 1,8 C 1,9 C 3,2 km/h (1 Bft) 100,00 %
21.12.2015 02:35 2,0 C 99 % 1026,1 hPa 0,0 l/m 3,0 km/h (1 Bft) NO 42 0 min 0,000 mm 0,0 UV-I 0 W/m 1,9 C 2,0 C 4,8 km/h (1 Bft) 100,00 %
21.12.2015 02:40 2,1 C 99 % 1026,2 hPa 0,0 l/m 2,9 km/h (1 Bft) NO 42 0 min 0,000 mm 0,0 UV-I 0 W/m 2,0 C 2,1 C 6,4 km/h (2 Bft) 100,00 %
21.12.2015 02:45 2,1 C 99 % 1026,1 hPa 0,0 l/m 2,6 km/h (1 Bft) NO 42 0 min 0,000 mm 0,0 UV-I 0 W/m 2,0 C 2,1 C 6,4 km/h (2 Bft) 99,19 %
21.12.2015 02:50 2,1 C 99 % 1026,0 hPa 0,0 l/m 4,2 km/h (1 Bft) O-NO 61 0 min 0,000 mm 0,0 UV-I 0 W/m 2,0 C 2,1 C 8,0 km/h (2 Bft) 98,21 %
21.12.2015 02:55 2,0 C 99 % 1026,1 hPa 0,0 l/m 4,1 km/h (1 Bft) O-NO 63 0 min 0,000 mm 0,0 UV-I 0 W/m 1,9 C 2,0 C 6,4 km/h (2 Bft) 98,29 %
21.12.2015 03:00 2,1 C 99 % 1026,1 hPa 0,0 l/m 4,3 km/h (1 Bft) NO 53 0 min 0,000 mm 0,0 UV-I 0 W/m 2,0 C 2,1 C 6,4 km/h (2 Bft) 100,00 %
21.12.2015 03:05 2,1 C 99 % 1026,1 hPa 0,0 l/m 3,7 km/h (1 Bft) NO 49 0 min 0,000 mm 0,0 UV-I 0 W/m 2,0 C 2,1 C 6,4 km/h (2 Bft) 99,13 %
21.12.2015 03:10 2,1 C 99 % 1026,2 hPa 0,0 l/m 3,0 km/h (1 Bft) N-NO 29 0 min 0,000 mm 0,0 UV-I 0 W/m 2,0 C 2,1 C 6,4 km/h (2 Bft) 99,12 %
21.12.2015 03:15 2,1 C 99 % 1026,2 hPa 0,0 l/m 4,4 km/h (1 Bft) NO 38 0 min 0,000 mm 0,0 UV-I 0 W/m 2,0 C 2,1 C 6,4 km/h (2 Bft) 100,00 %
21.12.2015 03:20 2,1 C 99 % 1026,2 hPa 0,0 l/m 3,2 km/h (1 Bft) O-NO 73 0 min 0,000 mm 0,0 UV-I 0 W/m 2,0 C 2,1 C 6,4 km/h (2 Bft) 99,15 %
21.12.2015 03:25 2,1 C 99 % 1026,3 hPa 0,0 l/m 2,5 km/h (1 Bft) O-NO 76 0 min 0,000 mm 0,0 UV-I 0 W/m 2,0 C 2,1 C 4,8 km/h (1 Bft) 98,17 %
21.12.2015 03:30 2,1 C 99 % 1026,2 hPa 0,0 l/m 1,2 km/h (1 Bft) O-NO 76 0 min 0,000 mm 0,0 UV-I 0 W/m 2,0 C 2,1 C 3,2 km/h (1 Bft) 98,39 %
21.12.2015 03:35 2,1 C 99 % 1026,3 hPa 0,0 l/m 2,8 km/h (1 Bft) O-NO 76 0 min 0,000 mm 0,0 UV-I 0 W/m 2,0 C 2,1 C 4,8 km/h (1 Bft) 100,00 %
21.12.2015 03:40 2,1 C 99 % 1026,2 hPa 0,0 l/m 2,0 km/h (1 Bft) O-NO 76 0 min 0,000 mm 0,0 UV-I 0 W/m 2,0 C 2,1 C 3,2 km/h (1 Bft) 99,13 %
21.12.2015 03:45 2,1 C 99 % 1026,2 hPa 0,0 l/m 1,7 km/h (1 Bft) O-NO 76 0 min 0,000 mm 0,0 UV-I 0 W/m 2,0 C 2,1 C 3,2 km/h (1 Bft) 97,39 %
21.12.2015 03:50 2,0 C 99 % 1026,2 hPa 0,0 l/m 1,0 km/h (0 Bft) O-NO 76 0 min 0,000 mm 0,0 UV-I 0 W/m 1,9 C 2,0 C 3,2 km/h (1 Bft) 95,61 %
21.12.2015 03:55 2,1 C 99 % 1026,3 hPa 0,0 l/m 1,3 km/h (1 Bft) O-NO 76 0 min 0,000 mm 0,0 UV-I 0 W/m 2,0 C 2,1 C 3,2 km/h (1 Bft) 93,75 %
21.12.2015 04:00 2,1 C 99 % 1026,3 hPa 0,0 l/m 0,2 km/h (0 Bft) O-NO 76 0 min 0,000 mm 0,0 UV-I 0 W/m 2,0 C 2,1 C 1,6 km/h (1 Bft) 96,85 %
21.12.2015 04:05 2,1 C 99 % 1026,4 hPa 0,0 l/m 0,7 km/h (0 Bft) O-NO 76 0 min 0,000 mm 0,0 UV-I 0 W/m 2,0 C 2,1 C 1,6 km/h (1 Bft) 97,33 %
21.12.2015 04:10 2,1 C 99 % 1026,3 hPa 0,0 l/m 1,0 km/h (0 Bft) O 88 0 min 0,000 mm 0,0 UV-I 0 W/m 2,0 C 2,1 C 3,2 km/h (1 Bft) 96,69 %
21.12.2015 04:15 2,1 C 99 % 1026,4 hPa 0,0 l/m 1,7 km/h (1 Bft) SO 146 0 min 0,000 mm 0,0 UV-I 0 W/m 2,0 C 2,1 C 3,2 km/h (1 Bft) 96,75 %
21.12.2015 04:20 2,0 C 99 % 1026,5 hPa 0,0 l/m 1,2 km/h (1 Bft) SO 146 0 min 0,000 mm 0,0 UV-I 0 W/m 1,9 C 2,0 C 3,2 km/h (1 Bft) 100,00 %
21.12.2015 04:25 2,0 C 99 % 1026,5 hPa 0,0 l/m 1,6 km/h (1 Bft) S-SO 163 0 min 0,000 mm 0,0 UV-I 0 W/m 1,9 C 2,0 C 3,2 km/h (1 Bft) 98,26 %
21.12.2015 04:30 2,0 C 99 % 1026,5 hPa 0,0 l/m 1,5 km/h (1 Bft) S 175 0 min 0,000 mm 0,0 UV-I 0 W/m 1,9 C 2,0 C 4,8 km/h (1 Bft) 100,00 %
21.12.2015 04:35 1,9 C 99 % 1026,6 hPa 0,0 l/m 1,4 km/h (1 Bft) S 175 0 min 0,000 mm 0,0 UV-I 0 W/m 1,8 C 1,9 C 3,2 km/h (1 Bft) 99,11 %
21.12.2015 04:40 1,9 C 99 % 1026,7 hPa 0,0 l/m 2,0 km/h (1 Bft) S 184 0 min 0,000 mm 0,0 UV-I 0 W/m 1,8 C 1,9 C 3,2 km/h (1 Bft) 99,19 %
21.12.2015 04:45 1,9 C 99 % 1026,7 hPa 0,0 l/m 2,2 km/h (1 Bft) SW 234 0 min 0,000 mm 0,0 UV-I 0 W/m 1,8 C 1,9 C 4,8 km/h (1 Bft) 98,26 %
21.12.2015 04:50 1,9 C 99 % 1026,6 hPa 0,0 l/m 2,6 km/h (1 Bft) S-SW 192 0 min 0,000 mm 0,0 UV-I 0 W/m 1,8 C 1,9 C 6,4 km/h (2 Bft) 99,11 %
21.12.2015 04:55 1,9 C 99 % 1026,7 hPa 0,0 l/m 4,6 km/h (1 Bft) S 186 0 min 0,000 mm 0,0 UV-I 0 W/m 1,8 C 1,9 C 9,7 km/h (2 Bft) 99,11 %
21.12.2015 05:00 1,9 C 99 % 1026,7 hPa 0,0 l/m 3,0 km/h (1 Bft) S-SO 155 0 min 0,000 mm 0,0 UV-I 0 W/m 1,8 C 1,9 C 8,0 km/h (2 Bft) 98,37 %
21.12.2015 05:05 1,9 C 99 % 1026,8 hPa 0,0 l/m 1,3 km/h (1 Bft) S-SO 156 0 min 0,000 mm 0,0 UV-I 0 W/m 1,8 C 1,9 C 3,2 km/h (1 Bft) 100,00 %
21.12.2015 05:10 1,9 C 99 % 1026,9 hPa 0,0 l/m 1,3 km/h (1 Bft) S-SO 156 0 min 0,000 mm 0,0 UV-I 0 W/m 1,8 C 1,9 C 4,8 km/h (1 Bft) 99,15 %
21.12.2015 05:15 1,9 C 99 % 1026,9 hPa 0,0 l/m 2,5 km/h (1 Bft) S-SO 155 0 min 0,000 mm 0,0 UV-I 0 W/m 1,8 C 1,9 C 3,2 km/h (1 Bft) 100,00 %
21.12.2015 05:20 1,9 C 99 % 1026,9 hPa 0,0 l/m 1,9 km/h (1 Bft) S-SO 150 0 min 0,000 mm 0,0 UV-I 0 W/m 1,8 C 1,9 C 3,2 km/h (1 Bft) 100,00 %
21.12.2015 05:25 1,9 C 99 % 1026,9 hPa 0,0 l/m 0,8 km/h (0 Bft) S-SO 150 0 min 0,000 mm 0,0 UV-I 0 W/m 1,8 C 1,9 C 3,2 km/h (1 Bft) 97,56 %
21.12.2015 05:30 1,9 C 99 % 1026,9 hPa 0,0 l/m 0,1 km/h (0 Bft) S-SO 150 0 min 0,000 mm 0,0 UV-I 0 W/m 1,8 C 1,9 C 1,6 km/h (1 Bft) 97,46 %
21.12.2015 05:35 1,9 C 99 % 1026,9 hPa 0,0 l/m 0,7 km/h (0 Bft) S-SO 150 0 min 0,000 mm 0,0 UV-I 0 W/m 1,8 C 1,9 C 3,2 km/h (1 Bft) 99,21 %
21.12.2015 05:40 1,9 C 99 % 1026,9 hPa 0,0 l/m 0,7 km/h (0 Bft) S-SO 151 0 min 0,000 mm 0,0 UV-I 0 W/m 1,8 C 1,9 C 1,6 km/h (1 Bft) 100,00 %
21.12.2015 05:45 1,9 C 99 % 1027,0 hPa 0,0 l/m 0,2 km/h (0 Bft) S-SO 150 0 min 0,000 mm 0,0 UV-I 0 W/m 1,8 C 1,9 C 1,6 km/h (1 Bft) 97,39 %
21.12.2015 05:50 1,9 C 99 % 1027,0 hPa 0,0 l/m 0,0 km/h (0 Bft) S-SO 150 0 min 0,000 mm 0,0 UV-I 0 W/m 1,8 C 1,9 C 0,0 km/h (0 Bft) 98,15 %
21.12.2015 05:55 2,0 C 99 % 1027,0 hPa 0,0 l/m 0,1 km/h (0 Bft) S-SO 150 0 min 0,000 mm 0,0 UV-I 0 W/m 1,9 C 2,0 C 1,6 km/h (1 Bft) 97,58 %
21.12.2015 06:00 2,0 C 99 % 1027,1 hPa 0,0 l/m 1,3 km/h (1 Bft) S-SO 150 0 min 0,000 mm 0,0 UV-I 0 W/m 1,9 C 2,0 C 3,2 km/h (1 Bft) 93,50 %
21.12.2015 06:05 1,9 C 99 % 1027,1 hPa 0,0 l/m 1,9 km/h (1 Bft) S-SO 151 0 min 0,000 mm 0,0 UV-I 0 W/m 1,8 C 1,9 C 3,2 km/h (1 Bft) 96,43 %
21.12.2015 06:10 1,9 C 99 % 1027,1 hPa 0,0 l/m 1,3 km/h (1 Bft) S-SO 150 0 min 0,000 mm 0,0 UV-I 0 W/m 1,8 C 1,9 C 3,2 km/h (1 Bft) 97,39 %
21.12.2015 06:15 2,0 C 99 % 1027,2 hPa 0,0 l/m 0,5 km/h (0 Bft) S-SO 150 0 min 0,000 mm 0,0 UV-I 0 W/m 1,9 C 2,0 C 3,2 km/h (1 Bft) 96,75 %
21.12.2015 06:20 1,9 C 99 % 1027,1 hPa 0,0 l/m 0,3 km/h (0 Bft) S-SO 150 0 min 0,000 mm 0,0 UV-I 0 W/m 1,8 C 1,9 C 3,2 km/h (1 Bft) 97,17 %
21.12.2015 06:25 1,9 C 99 % 1027,2 hPa 0,0 l/m 1,3 km/h (1 Bft) S-SO 150 0 min 0,000 mm 0,0 UV-I 0 W/m 1,8 C 1,9 C 3,2 km/h (1 Bft) 99,21 %
21.12.2015 06:30 1,9 C 99 % 1027,2 hPa 0,0 l/m 0,6 km/h (0 Bft) S-SO 150 0 min 0,000 mm 0,0 UV-I 0 W/m 1,8 C 1,9 C 3,2 km/h (1 Bft) 99,12 %
21.12.2015 06:35 1,9 C 99 % 1027,2 hPa 0,0 l/m 1,2 km/h (1 Bft) S-SO 150 0 min 0,000 mm 0,0 UV-I 0 W/m 1,8 C 1,9 C 3,2 km/h (1 Bft) 98,35 %
21.12.2015 06:40 1,9 C 99 % 1027,3 hPa 0,0 l/m 0,1 km/h (0 Bft) S-SO 150 0 min 0,000 mm 0,0 UV-I 0 W/m 1,8 C 1,9 C 1,6 km/h (1 Bft) 97,46 %
21.12.2015 06:45 1,9 C 99 % 1027,4 hPa 0,0 l/m 0,7 km/h (0 Bft) S-SO 150 0 min 0,000 mm 0,0 UV-I 0 W/m 1,8 C 1,9 C 3,2 km/h (1 Bft) 100,00 %
21.12.2015 06:50 1,9 C 99 % 1027,5 hPa 0,0 l/m 0,3 km/h (0 Bft) S-SO 150 0 min 0,000 mm 0,0 UV-I 0 W/m 1,8 C 1,9 C 1,6 km/h (1 Bft) 100,00 %
21.12.2015 06:55 1,9 C 99 % 1027,5 hPa 0,0 l/m 1,6 km/h (1 Bft) S-SO 150 0 min 0,000 mm 0,0 UV-I 0 W/m 1,8 C 1,9 C 3,2 km/h (1 Bft) 98,25 %
21.12.2015 07:00 1,9 C 99 % 1027,5 hPa 0,0 l/m 0,5 km/h (0 Bft) S-SO 150 0 min 0,000 mm 0,0 UV-I 0 W/m 1,8 C 1,9 C 1,6 km/h (1 Bft) 99,13 %
21.12.2015 07:05 1,9 C 99 % 1027,5 hPa 0,0 l/m 0,5 km/h (0 Bft) S-SO 150 0 min 0,000 mm 0,0 UV-I 0 W/m 1,8 C 1,9 C 3,2 km/h (1 Bft) 99,15 %
21.12.2015 07:10 1,9 C 99 % 1027,6 hPa 0,0 l/m 0,9 km/h (0 Bft) S-SO 150 0 min 0,000 mm 0,0 UV-I 0 W/m 1,8 C 1,9 C 3,2 km/h (1 Bft) 99,19 %
21.12.2015 07:15 1,9 C 99 % 1027,6 hPa 0,0 l/m 0,1 km/h (0 Bft) S-SO 150 0 min 0,000 mm 0,0 UV-I 0 W/m 1,8 C 1,9 C 1,6 km/h (1 Bft) 100,00 %
21.12.2015 07:20 1,9 C 99 % 1027,6 hPa 0,0 l/m 0,9 km/h (0 Bft) SO 134 0 min 0,000 mm 0,0 UV-I 0 W/m 1,8 C 1,9 C 3,2 km/h (1 Bft) 99,17 %
21.12.2015 07:25 1,9 C 99 % 1027,7 hPa 0,0 l/m 0,2 km/h (0 Bft) SO 134 0 min 0,000 mm 0,0 UV-I 0 W/m 1,8 C 1,9 C 1,6 km/h (1 Bft) 100,00 %
21.12.2015 07:30 1,9 C 99 % 1027,7 hPa 0,0 l/m 0,0 km/h (0 Bft) SO 134 0 min 0,000 mm 0,0 UV-I 0 W/m 1,8 C 1,9 C 0,0 km/h (0 Bft) 100,00 %
21.12.2015 07:35 1,9 C 99 % 1027,8 hPa 0,0 l/m 0,7 km/h (0 Bft) SO 134 0 min 0,000 mm 0,0 UV-I 0 W/m 1,8 C 1,9 C 3,2 km/h (1 Bft) 98,11 %
21.12.2015 07:40 1,9 C 99 % 1027,8 hPa 0,0 l/m 1,0 km/h (0 Bft) SO 134 0 min 0,000 mm 0,0 UV-I 0 W/m 1,8 C 1,9 C 3,2 km/h (1 Bft) 100,00 %
21.12.2015 07:45 1,8 C 99 % 1027,8 hPa 0,0 l/m 2,3 km/h (1 Bft) S 169 0 min 0,000 mm 0,0 UV-I 0 W/m 1,7 C 1,8 C 6,4 km/h (2 Bft) 100,00 %
21.12.2015 07:50 1,8 C 99 % 1027,8 hPa 0,0 l/m 2,9 km/h (1 Bft) S-SO 162 0 min 0,000 mm 0,0 UV-I 0 W/m 1,7 C 1,8 C 6,4 km/h (2 Bft) 96,58 %
21.12.2015 07:55 1,7 C 99 % 1027,8 hPa 0,0 l/m 2,9 km/h (1 Bft) S-SO 155 0 min 0,000 mm 0,0 UV-I 4 W/m 1,6 C 1,7 C 6,4 km/h (2 Bft) 94,92 %
21.12.2015 08:00 1,7 C 99 % 1027,9 hPa 0,0 l/m 0,5 km/h (0 Bft) S-SO 155 0 min 0,000 mm 0,0 UV-I 6 W/m 1,6 C 1,7 C 3,2 km/h (1 Bft) 97,32 %
21.12.2015 08:05 1,8 C 99 % 1027,9 hPa 0,0 l/m 0,1 km/h (0 Bft) S-SO 155 0 min 0,000 mm 0,0 UV-I 7 W/m 1,7 C 1,8 C 1,6 km/h (1 Bft) 95,93 %
21.12.2015 08:10 1,8 C 99 % 1027,9 hPa 0,0 l/m 0,2 km/h (0 Bft) S-SO 155 0 min 0,000 mm 0,0 UV-I 9 W/m 1,7 C 1,8 C 1,6 km/h (1 Bft) 95,87 %
21.12.2015 08:15 1,8 C 99 % 1027,9 hPa 0,0 l/m 0,6 km/h (0 Bft) S-SO 155 0 min 0,000 mm 0,0 UV-I 11 W/m 1,7 C 1,8 C 1,6 km/h (1 Bft) 96,49 %
21.12.2015 08:20 1,7 C 99 % 1027,9 hPa 0,0 l/m 3,0 km/h (1 Bft) S-SO 163 0 min 0,000 mm 0,0 UV-I 14 W/m 1,6 C 1,7 C 8,0 km/h (2 Bft) 97,25 %
21.12.2015 08:25 1,7 C 99 % 1027,9 hPa 0,0 l/m 2,3 km/h (1 Bft) S 183 0 min 0,000 mm 0,0 UV-I 21 W/m 1,6 C 1,7 C 6,4 km/h (2 Bft) 98,26 %
21.12.2015 08:30 1,7 C 99 % 1027,8 hPa 0,0 l/m 1,0 km/h (0 Bft) S-SO 159 0 min 0,000 mm 0,0 UV-I 25 W/m 1,6 C 1,7 C 3,2 km/h (1 Bft) 100,00 %
21.12.2015 08:35 1,7 C 99 % 1027,9 hPa 0,0 l/m 0,8 km/h (0 Bft) O-SO 119 0 min 0,000 mm 0,0 UV-I 26 W/m 1,6 C 1,7 C 3,2 km/h (1 Bft) 99,13 %
21.12.2015 08:40 1,8 C 99 % 1027,9 hPa 0,0 l/m 1,2 km/h (1 Bft) O 89 0 min 0,000 mm 0,0 UV-I 28 W/m 1,7 C 1,8 C 3,2 km/h (1 Bft) 98,35 %
21.12.2015 08:45 1,9 C 99 % 1028,0 hPa 0,0 l/m 1,8 km/h (1 Bft) O 89 0 min 0,000 mm 0,0 UV-I 35 W/m 1,8 C 1,9 C 3,2 km/h (1 Bft) 100,00 %
21.12.2015 08:50 1,9 C 99 % 1028,1 hPa 0,0 l/m 0,8 km/h (0 Bft) O 89 0 min 0,000 mm 0,0 UV-I 36 W/m 1,8 C 1,9 C 3,2 km/h (1 Bft) 100,00 %
21.12.2015 08:55 1,8 C 99 % 1028,2 hPa 0,0 l/m 0,6 km/h (0 Bft) SO 127 0 min 0,000 mm 0,0 UV-I 37 W/m 1,7 C 1,8 C 3,2 km/h (1 Bft) 99,11 %
21.12.2015 09:00 1,8 C 99 % 1028,2 hPa 0,0 l/m 2,2 km/h (1 Bft) S 184 0 min 0,000 mm 0,0 UV-I 43 W/m 1,7 C 1,8 C 4,8 km/h (1 Bft) 99,19 %
21.12.2015 09:05 1,8 C 99 % 1028,3 hPa 0,0 l/m 3,2 km/h (1 Bft) S 184 0 min 0,000 mm 0,0 UV-I 42 W/m 1,7 C 1,8 C 6,4 km/h (2 Bft) 98,26 %
21.12.2015 09:10 1,7 C 99 % 1028,3 hPa 0,0 l/m 1,8 km/h (1 Bft) S 180 0 min 0,000 mm 0,0 UV-I 43 W/m 1,6 C 1,7 C 4,8 km/h (1 Bft) 97,50 %
21.12.2015 09:15 1,7 C 99 % 1028,3 hPa 0,0 l/m 0,4 km/h (0 Bft) S 180 0 min 0,000 mm 0,0 UV-I 49 W/m 1,6 C 1,7 C 3,2 km/h (1 Bft) 100,00 %
21.12.2015 09:20 1,8 C 99 % 1028,3 hPa 0,0 l/m 0,3 km/h (0 Bft) S 180 0 min 0,000 mm 0,0 UV-I 50 W/m 1,7 C 1,8 C 1,6 km/h (1 Bft) 99,22 %
21.12.2015 09:25 1,9 C 99 % 1028,3 hPa 0,0 l/m 0,0 km/h (0 Bft) S 180 0 min 0,000 mm 0,0 UV-I 54 W/m 1,8 C 1,9 C 1,6 km/h (1 Bft) 98,21 %
21.12.2015 09:30 1,9 C 99 % 1028,4 hPa 0,0 l/m 0,0 km/h (0 Bft) S 180 0 min 0,000 mm 0,0 UV-I 62 W/m 1,8 C 1,9 C 1,6 km/h (1 Bft) 100,00 %
21.12.2015 09:35 2,0 C 99 % 1028,4 hPa 0,0 l/m 0,2 km/h (0 Bft) S 180 0 min 0,000 mm 0,0 UV-I 56 W/m 1,9 C 2,0 C 1,6 km/h (1 Bft) 100,00 %
21.12.2015 09:40 1,9 C 99 % 1028,4 hPa 0,0 l/m 0,5 km/h (0 Bft) S 180 0 min 0,000 mm 0,0 UV-I 47 W/m 1,8 C 1,9 C 1,6 km/h (1 Bft) 99,13 %
21.12.2015 09:45 1,9 C 99 % 1028,4 hPa 0,0 l/m 0,4 km/h (0 Bft) S 180 0 min 0,000 mm 0,0 UV-I 57 W/m 1,8 C 1,9 C 1,6 km/h (1 Bft) 98,39 %
21.12.2015 09:50 2,0 C 99 % 1028,4 hPa 0,0 l/m 1,1 km/h (1 Bft) S 180 0 min 0,000 mm 0,0 UV-I 64 W/m 1,9 C 2,0 C 3,2 km/h (1 Bft) 97,22 %
21.12.2015 09:55 2,0 C 99 % 1028,4 hPa 0,0 l/m 0,3 km/h (0 Bft) S 180 0 min 0,000 mm 0,0 UV-I 59 W/m 1,9 C 2,0 C 1,6 km/h (1 Bft) 96,52 %
21.12.2015 10:00 2,1 C 99 % 1028,4 hPa 0,0 l/m 2,1 km/h (1 Bft) NO 56 0 min 0,025 mm 0,0 UV-I 62 W/m 2,0 C 2,1 C 4,8 km/h (1 Bft) 97,52 %
21.12.2015 10:05 2,2 C 99 % 1028,4 hPa 0,0 l/m 2,1 km/h (1 Bft) NO 53 0 min 0,000 mm 0,0 UV-I 62 W/m 2,1 C 2,2 C 4,8 km/h (1 Bft) 96,75 %
21.12.2015 10:10 2,2 C 99 % 1028,5 hPa 0,0 l/m 0,2 km/h (0 Bft) NO 53 0 min 0,000 mm 0,0 UV-I 53 W/m 2,1 C 2,2 C 1,6 km/h (1 Bft) 98,26 %
21.12.2015 10:15 2,2 C 99 % 1028,5 hPa 0,0 l/m 0,1 km/h (0 Bft) NO 52 0 min 0,000 mm 0,0 UV-I 45 W/m 2,1 C 2,2 C 1,6 km/h (1 Bft) 96,33 %
21.12.2015 10:20 2,2 C 99 % 1028,5 hPa 0,0 l/m 0,4 km/h (0 Bft) NO 52 0 min 0,000 mm 0,0 UV-I 44 W/m 2,1 C 2,2 C 1,6 km/h (1 Bft) 95,93 %
21.12.2015 10:25 2,2 C 99 % 1028,5 hPa 0,0 l/m 0,7 km/h (0 Bft) NO 52 0 min 0,000 mm 0,0 UV-I 46 W/m 2,1 C 2,2 C 3,2 km/h (1 Bft) 97,52 %
21.12.2015 10:30 2,2 C 99 % 1028,4 hPa 0,0 l/m 0,2 km/h (0 Bft) NO 52 0 min 0,000 mm 0,0 UV-I 51 W/m 2,1 C 2,2 C 1,6 km/h (1 Bft) 98,20 %
21.12.2015 10:35 2,2 C 99 % 1028,4 hPa 0,0 l/m 0,1 km/h (0 Bft) NO 52 0 min 0,000 mm 0,0 UV-I 64 W/m 2,1 C 2,2 C 1,6 km/h (1 Bft) 100,00 %
21.12.2015 10:40 2,2 C 99 % 1028,4 hPa 0,0 l/m 0,1 km/h (0 Bft) NO 52 0 min 0,000 mm 0,0 UV-I 74 W/m 2,1 C 2,2 C 1,6 km/h (1 Bft) 99,17 %
21.12.2015 10:45 2,3 C 99 % 1028,4 hPa 0,0 l/m 0,0 km/h (0 Bft) NO 52 0 min 0,000 mm 0,0 UV-I 75 W/m 2,2 C 2,3 C 0,0 km/h (0 Bft) 99,10 %
21.12.2015 10:50 2,3 C 99 % 1028,4 hPa 0,0 l/m 0,0 km/h (0 Bft) NO 52 0 min 0,000 mm 0,0 UV-I 61 W/m 2,2 C 2,3 C 0,0 km/h (0 Bft) 100,00 %
21.12.2015 10:55 2,3 C 99 % 1028,4 hPa 0,0 l/m 0,7 km/h (0 Bft) O-SO 119 0 min 0,000 mm 0,0 UV-I 61 W/m 2,2 C 2,3 C 3,2 km/h (1 Bft) 100,00 %
21.12.2015 11:00 2,3 C 99 % 1028,4 hPa 0,0 l/m 0,1 km/h (0 Bft) O-SO 119 0 min 0,026 mm 0,0 UV-I 66 W/m 2,2 C 2,3 C 1,6 km/h (1 Bft) 100,00 %
21.12.2015 11:05 2,3 C 99 % 1028,4 hPa 0,0 l/m 0,3 km/h (0 Bft) O-SO 119 0 min 0,000 mm 0,0 UV-I 66 W/m 2,2 C 2,3 C 1,6 km/h (1 Bft) 98,35 %
21.12.2015 11:10 2,4 C 99 % 1028,4 hPa 0,0 l/m 0,6 km/h (0 Bft) O-SO 118 0 min 0,000 mm 0,0 UV-I 61 W/m 2,3 C 2,4 C 3,2 km/h (1 Bft) 100,00 %
21.12.2015 11:15 2,5 C 99 % 1028,4 hPa 0,0 l/m 2,0 km/h (1 Bft) O-SO 118 0 min 0,000 mm 0,0 UV-I 55 W/m 2,4 C 2,5 C 3,2 km/h (1 Bft) 99,13 %
21.12.2015 11:20 2,5 C 99 % 1028,4 hPa 0,0 l/m 0,9 km/h (0 Bft) O-SO 118 0 min 0,000 mm 0,0 UV-I 59 W/m 2,4 C 2,5 C 1,6 km/h (1 Bft) 100,00 %
21.12.2015 11:25 2,4 C 99 % 1028,4 hPa 0,0 l/m 0,6 km/h (0 Bft) O-SO 118 0 min 0,000 mm 0,0 UV-I 71 W/m 2,3 C 2,4 C 3,2 km/h (1 Bft) 98,37 %
21.12.2015 11:30 2,5 C 99 % 1028,4 hPa 0,0 l/m 0,9 km/h (0 Bft) O-SO 118 0 min 0,000 mm 0,0 UV-I 105 W/m 2,4 C 2,5 C 3,2 km/h (1 Bft) 100,00 %
21.12.2015 11:35 2,5 C 99 % 1028,3 hPa 0,0 l/m 0,3 km/h (0 Bft) O-SO 118 0 min 0,000 mm 0,0 UV-I 126 W/m 2,4 C 2,5 C 1,6 km/h (1 Bft) 100,00 %
21.12.2015 11:40 2,6 C 99 % 1028,3 hPa 0,0 l/m 0,3 km/h (0 Bft) O-SO 118 0 min 0,000 mm 0,0 UV-I 89 W/m 2,5 C 2,6 C 3,2 km/h (1 Bft) 100,00 %
21.12.2015 11:45 2,6 C 99 % 1028,3 hPa 0,0 l/m 0,0 km/h (0 Bft) O-SO 118 0 min 0,000 mm 0,0 UV-I 72 W/m 2,5 C 2,6 C 1,6 km/h (1 Bft) 99,17 %
21.12.2015 11:50 2,6 C 99 % 1028,3 hPa 0,0 l/m 1,1 km/h (1 Bft) O-SO 118 0 min 0,000 mm 0,0 UV-I 75 W/m 2,5 C 2,6 C 3,2 km/h (1 Bft) 98,29 %
21.12.2015 11:55 2,7 C 99 % 1028,3 hPa 0,0 l/m 1,1 km/h (1 Bft) O-SO 118 0 min 0,000 mm 0,0 UV-I 77 W/m 2,6 C 2,7 C 3,2 km/h (1 Bft) 100,00 %
21.12.2015 12:00 2,7 C 100 % 1028,3 hPa 0,0 l/m 0,1 km/h (0 Bft) O-SO 118 0 min 0,025 mm 0,0 UV-I 82 W/m 2,7 C 2,7 C 1,6 km/h (1 Bft) 97,46 %
21.12.2015 12:05 2,8 C 99 % 1028,2 hPa 0,0 l/m 0,1 km/h (0 Bft) O-SO 118 0 min 0,000 mm 0,0 UV-I 92 W/m 2,7 C 2,8 C 1,6 km/h (1 Bft) 95,93 %
21.12.2015 12:10 2,8 C 99 % 1028,3 hPa 0,0 l/m 0,2 km/h (0 Bft) O-SO 118 0 min 0,000 mm 0,0 UV-I 91 W/m 2,7 C 2,8 C 1,6 km/h (1 Bft) 97,32 %
21.12.2015 12:15 2,9 C 99 % 1028,3 hPa 0,0 l/m 0,1 km/h (0 Bft) O-SO 118 0 min 0,000 mm 0,0 UV-I 97 W/m 2,8 C 2,9 C 1,6 km/h (1 Bft) 96,67 %
21.12.2015 12:20 3,0 C 99 % 1028,3 hPa 0,0 l/m 0,1 km/h (0 Bft) O-SO 118 0 min 0,000 mm 0,0 UV-I 102 W/m 2,9 C 3,0 C 1,6 km/h (1 Bft) 97,25 %
21.12.2015 12:25 3,1 C 100 % 1028,3 hPa 0,0 l/m 0,6 km/h (0 Bft) O-SO 118 0 min 0,000 mm 0,0 UV-I 103 W/m 3,1 C 3,1 C 3,2 km/h (1 Bft) 97,46 %
21.12.2015 12:30 3,1 C 100 % 1028,3 hPa 0,0 l/m 0,6 km/h (0 Bft) O-SO 118 0 min 0,000 mm 0,0 UV-I 94 W/m 3,1 C 3,1 C 1,6 km/h (1 Bft) 97,50 %
21.12.2015 12:35 3,2 C 99 % 1028,3 hPa 0,0 l/m 2,1 km/h (1 Bft) S-SW 196 0 min 0,000 mm 0,0 UV-I 78 W/m 3,1 C 3,2 C 4,8 km/h (1 Bft) 97,58 %
21.12.2015 12:40 3,1 C 100 % 1028,2 hPa 0,0 l/m 1,6 km/h (1 Bft) S-SW 195 0 min 0,000 mm 0,0 UV-I 69 W/m 3,1 C 3,1 C 3,2 km/h (1 Bft) 98,17 %
21.12.2015 12:45 3,2 C 99 % 1028,2 hPa 0,0 l/m 0,8 km/h (0 Bft) S-SW 195 0 min 0,000 mm 0,0 UV-I 48 W/m 3,1 C 3,2 C 3,2 km/h (1 Bft) 98,37 %
21.12.2015 12:50 3,2 C 99 % 1028,2 hPa 0,0 l/m 0,7 km/h (0 Bft) S-SW 195 0 min 0,000 mm 0,0 UV-I 42 W/m 3,1 C 3,2 C 1,6 km/h (1 Bft) 99,15 %
21.12.2015 12:55 3,2 C 99 % 1028,3 hPa 0,0 l/m 1,0 km/h (0 Bft) SW 228 0 min 0,000 mm 0,0 UV-I 49 W/m 3,1 C 3,2 C 3,2 km/h (1 Bft) 98,21 %
21.12.2015 13:00 3,3 C 99 % 1028,3 hPa 0,0 l/m 1,0 km/h (0 Bft) SW 229 0 min 0,026 mm 0,0 UV-I 41 W/m 3,2 C 3,3 C 3,2 km/h (1 Bft) 99,15 %
21.12.2015 13:05 3,3 C 99 % 1028,2 hPa 0,0 l/m 0,5 km/h (0 Bft) SW 215 0 min 0,000 mm 0,0 UV-I 37 W/m 3,2 C 3,3 C 3,2 km/h (1 Bft) 100,00 %
21.12.2015 13:10 3,3 C 99 % 1028,2 hPa 0,0 l/m 1,7 km/h (1 Bft) SW 215 0 min 0,000 mm 0,0 UV-I 33 W/m 3,2 C 3,3 C 3,2 km/h (1 Bft) 98,20 %
21.12.2015 13:15 3,3 C 99 % 1028,3 hPa 0,0 l/m 1,6 km/h (1 Bft) SW 216 0 min 0,000 mm 0,0 UV-I 38 W/m 3,2 C 3,3 C 3,2 km/h (1 Bft) 98,31 %
21.12.2015 13:20 3,4 C 100 % 1028,2 hPa 0,0 l/m 1,5 km/h (1 Bft) W-SW 243 0 min 0,000 mm 0,0 UV-I 43 W/m 3,4 C 3,4 C 3,2 km/h (1 Bft) 100,00 %
21.12.2015 13:25 3,4 C 99 % 1028,3 hPa 0,0 l/m 0,7 km/h (0 Bft) W-SW 244 0 min 0,000 mm 0,0 UV-I 46 W/m 3,3 C 3,4 C 3,2 km/h (1 Bft) 97,62 %
21.12.2015 13:30 3,6 C 100 % 1028,4 hPa 0,0 l/m 0,6 km/h (0 Bft) W-SW 244 0 min 0,000 mm 0,0 UV-I 52 W/m 3,6 C 3,6 C 3,2 km/h (1 Bft) 100,00 %
21.12.2015 13:35 3,6 C 99 % 1028,4 hPa 0,0 l/m 1,8 km/h (1 Bft) NW 313 0 min 0,000 mm 0,0 UV-I 57 W/m 3,5 C 3,6 C 4,8 km/h (1 Bft) 100,00 %
21.12.2015 13:40 3,7 C 100 % 1028,5 hPa 0,0 l/m 0,9 km/h (0 Bft) NW 313 0 min 0,000 mm 0,0 UV-I 53 W/m 3,7 C 3,7 C 3,2 km/h (1 Bft) 99,10 %
21.12.2015 13:45 3,7 C 100 % 1028,5 hPa 0,0 l/m 1,1 km/h (1 Bft) NW 313 0 min 0,000 mm 0,0 UV-I 37 W/m 3,7 C 3,7 C 3,2 km/h (1 Bft) 100,00 %
21.12.2015 13:50 3,7 C 100 % 1028,5 hPa 0,0 l/m 0,7 km/h (0 Bft) NW 313 0 min 0,000 mm 0,0 UV-I 31 W/m 3,7 C 3,7 C 3,2 km/h (1 Bft) 99,11 %
21.12.2015 13:55 3,7 C 100 % 1028,5 hPa 0,0 l/m 1,2 km/h (1 Bft) W-NW 295 0 min 0,000 mm 0,0 UV-I 33 W/m 3,7 C 3,7 C 4,8 km/h (1 Bft) 97,44 %
21.12.2015 14:00 3,8 C 99 % 1028,6 hPa 0,0 l/m 1,4 km/h (1 Bft) W-NW 295 0 min 0,025 mm 0,0 UV-I 33 W/m 3,7 C 3,8 C 3,2 km/h (1 Bft) 100,00 %
21.12.2015 14:05 3,8 C 99 % 1028,5 hPa 0,0 l/m 2,7 km/h (1 Bft) W-SW 247 0 min 0,000 mm 0,0 UV-I 26 W/m 3,7 C 3,8 C 4,8 km/h (1 Bft) 99,15 %
21.12.2015 14:10 3,8 C 99 % 1028,5 hPa 0,0 l/m 4,0 km/h (1 Bft) W 259 0 min 0,000 mm 0,0 UV-I 47 W/m 3,7 C 3,8 C 6,4 km/h (2 Bft) 95,41 %
21.12.2015 14:15 3,8 C 99 % 1028,6 hPa 0,0 l/m 3,7 km/h (1 Bft) W 272 0 min 0,000 mm 0,0 UV-I 53 W/m 3,7 C 3,8 C 6,4 km/h (2 Bft) 96,83 %
21.12.2015 14:20 3,9 C 99 % 1028,6 hPa 0,0 l/m 4,6 km/h (1 Bft) W 259 0 min 0,000 mm 0,0 UV-I 37 W/m 3,8 C 3,9 C 6,4 km/h (2 Bft) 97,46 %
21.12.2015 14:25 3,9 C 99 % 1028,6 hPa 0,0 l/m 3,5 km/h (1 Bft) W 269 0 min 0,000 mm 0,0 UV-I 34 W/m 3,8 C 3,9 C 4,8 km/h (1 Bft) 97,39 %
21.12.2015 14:30 4,0 C 100 % 1028,7 hPa 0,0 l/m 4,2 km/h (1 Bft) W-SW 253 0 min 0,000 mm 0,0 UV-I 42 W/m 4,0 C 4,0 C 8,0 km/h (2 Bft) 97,25 %
21.12.2015 14:35 4,1 C 99 % 1028,8 hPa 0,0 l/m 4,0 km/h (1 Bft) W-SW 258 0 min 0,000 mm 0,0 UV-I 36 W/m 4,0 C 4,1 C 6,4 km/h (2 Bft) 96,67 %
21.12.2015 14:40 4,3 C 99 % 1028,9 hPa 0,0 l/m 6,7 km/h (2 Bft) W 267 0 min 0,000 mm 0,0 UV-I 37 W/m 4,2 C 4,0 C 11,3 km/h (2 Bft) 98,39 %
21.12.2015 14:45 4,5 C 100 % 1029,0 hPa 0,0 l/m 9,1 km/h (2 Bft) SW 235 0 min 0,000 mm 0,0 UV-I 37 W/m 4,5 C 2,2 C 16,1 km/h (3 Bft) 99,10 %
21.12.2015 14:50 4,7 C 99 % 1029,1 hPa 0,0 l/m 10,7 km/h (2 Bft) W-SW 249 0 min 0,000 mm 0,0 UV-I 33 W/m 4,6 C 1,3 C 19,3 km/h (3 Bft) 98,26 %
21.12.2015 14:55 4,9 C 100 % 1029,2 hPa 0,2 l/m 14,0 km/h (3 Bft) W-SW 253 0 min 0,000 mm 0,0 UV-I 25 W/m 4,9 C -0,5 C 19,3 km/h (3 Bft) 99,17 %
21.12.2015 15:00 5,1 C 99 % 1029,2 hPa 0,0 l/m 12,0 km/h (2 Bft) W-SW 254 0 min 0,025 mm 0,0 UV-I 24 W/m 5,0 C 0,9 C 19,3 km/h (3 Bft) 99,10 %
21.12.2015 15:05 5,2 C 99 % 1029,2 hPa 0,0 l/m 12,0 km/h (2 Bft) W-SW 242 0 min 0,000 mm 0,0 UV-I 27 W/m 5,1 C 1,0 C 17,7 km/h (3 Bft) 100,00 %
21.12.2015 15:10 5,3 C 100 % 1029,3 hPa 0,0 l/m 10,2 km/h (2 Bft) W-SW 237 0 min 0,000 mm 0,0 UV-I 17 W/m 5,3 C 2,3 C 14,5 km/h (3 Bft) 99,15 %
21.12.2015 15:15 5,3 C 100 % 1029,2 hPa 0,0 l/m 10,0 km/h (2 Bft) SW 224 0 min 0,000 mm 0,0 UV-I 14 W/m 5,3 C 2,4 C 14,5 km/h (3 Bft) 100,00 %
21.12.2015 15:21 5,3 C 100 % 1029,4 hPa 0,0 l/m 7,7 km/h (2 Bft) SW 236 0 min 0,000 mm 0,0 UV-I 14 W/m 5,3 C 4,2 C 11,3 km/h (2 Bft) 100,00 %
21.12.2015 15:25 5,3 C 99 % 1029,5 hPa 0,0 l/m 8,5 km/h (2 Bft) W-SW 242 0 min 0,000 mm 0,0 UV-I 11 W/m 5,2 C 3,5 C 12,9 km/h (3 Bft) 100,00 %
21.12.2015 15:30 5,4 C 99 % 1029,4 hPa 0,0 l/m 8,4 km/h (2 Bft) W-SW 240 0 min 0,000 mm 0,0 UV-I 9 W/m 5,3 C 3,7 C 14,5 km/h (3 Bft) 100,00 %
21.12.2015 15:35 5,6 C 100 % 1029,4 hPa 0,0 l/m 8,2 km/h (2 Bft) SW 227 0 min 0,000 mm 0,0 UV-I 9 W/m 5,6 C 4,1 C 11,3 km/h (2 Bft) 98,11 %
21.12.2015 15:40 5,7 C 99 % 1029,5 hPa 0,0 l/m 8,4 km/h (2 Bft) W-SW 238 0 min 0,000 mm 0,0 UV-I 9 W/m 5,6 C 4,0 C 14,5 km/h (3 Bft) 99,17 %
21.12.2015 15:45 5,8 C 100 % 1029,5 hPa 0,0 l/m 8,3 km/h (2 Bft) SW 223 0 min 0,000 mm 0,0 UV-I 7 W/m 5,8 C 4,2 C 12,9 km/h (3 Bft) 99,21 %
21.12.2015 15:50 5,9 C 99 % 1029,6 hPa 0,0 l/m 6,2 km/h (2 Bft) SW 219 0 min 0,000 mm 0,0 UV-I 5 W/m 5,8 C 5,9 C 12,9 km/h (3 Bft) 99,06 %
21.12.2015 15:55 6,2 C 100 % 1029,6 hPa 0,0 l/m 6,1 km/h (2 Bft) SW 234 0 min 0,000 mm 0,0 UV-I 5 W/m 6,2 C 6,2 C 11,3 km/h (2 Bft) 100,00 %
21.12.2015 16:00 6,4 C 99 % 1029,7 hPa 0,0 l/m 6,9 km/h (2 Bft) SW 236 0 min 0,000 mm 0,0 UV-I 1 W/m 6,3 C 6,0 C 11,3 km/h (2 Bft) 100,00 %
21.12.2015 16:05 6,4 C 100 % 1029,7 hPa 0,0 l/m 5,9 km/h (2 Bft) S-SW 212 0 min 0,000 mm 0,0 UV-I 0 W/m 6,4 C 6,4 C 9,7 km/h (2 Bft) 99,19 %
21.12.2015 16:10 6,6 C 100 % 1029,8 hPa 0,0 l/m 6,4 km/h (2 Bft) SW 229 0 min 0,000 mm 0,0 UV-I 0 W/m 6,6 C 6,6 C 11,3 km/h (2 Bft) 96,61 %
21.12.2015 16:15 6,6 C 99 % 1029,7 hPa 0,0 l/m 5,9 km/h (2 Bft) SW 223 0 min 0,000 mm 0,0 UV-I 0 W/m 6,5 C 6,6 C 9,7 km/h (2 Bft) 96,43 %
21.12.2015 16:20 6,7 C 99 % 1029,8 hPa 0,0 l/m 5,0 km/h (1 Bft) SW 223 0 min 0,000 mm 0,0 UV-I 0 W/m 6,6 C 6,7 C 8,0 km/h (2 Bft) 96,67 %
21.12.2015 16:25 6,7 C 99 % 1029,8 hPa 0,0 l/m 3,9 km/h (1 Bft) W-SW 245 0 min 0,000 mm 0,0 UV-I 0 W/m 6,6 C 6,7 C 6,4 km/h (2 Bft) 98,21 %
21.12.2015 16:30 6,7 C 99 % 1029,8 hPa 0,0 l/m 2,8 km/h (1 Bft) W-SW 244 0 min 0,000 mm 0,0 UV-I 0 W/m 6,6 C 6,7 C 6,4 km/h (2 Bft) 97,56 %
21.12.2015 16:35 6,7 C 99 % 1029,7 hPa 0,0 l/m 4,2 km/h (1 Bft) SW 224 0 min 0,000 mm 0,0 UV-I 0 W/m 6,6 C 6,7 C 6,4 km/h (2 Bft) 96,61 %
21.12.2015 16:40 6,7 C 100 % 1029,7 hPa 0,0 l/m 5,3 km/h (1 Bft) SW 225 0 min 0,000 mm 0,0 UV-I 0 W/m 6,7 C 6,7 C 11,3 km/h (2 Bft) 96,33 %
21.12.2015 16:45 6,9 C 99 % 1029,7 hPa 0,0 l/m 7,2 km/h (2 Bft) S-SW 211 0 min 0,000 mm 0,0 UV-I 0 W/m 6,8 C 6,2 C 11,3 km/h (2 Bft) 100,00 %
21.12.2015 16:50 7,1 C 99 % 1029,5 hPa 0,0 l/m 8,0 km/h (2 Bft) S-SW 202 0 min 0,000 mm 0,0 UV-I 0 W/m 7,0 C 5,8 C 12,9 km/h (3 Bft) 99,19 %
21.12.2015 16:55 7,2 C 100 % 1029,5 hPa 0,0 l/m 9,5 km/h (2 Bft) S-SW 198 0 min 0,000 mm 0,0 UV-I 0 W/m 7,2 C 4,8 C 14,5 km/h (3 Bft) 98,31 %
21.12.2015 17:00 7,2 C 100 % 1029,6 hPa 0,0 l/m 9,4 km/h (2 Bft) S-SW 196 0 min 0,000 mm 0,0 UV-I 0 W/m 7,2 C 4,9 C 12,9 km/h (3 Bft) 100,00 %
21.12.2015 17:10 7,4 C 99 % 1029,6 hPa 0,0 l/m 11,1 km/h (2 Bft) S-SW 199 0 min 0,000 mm 0,0 UV-I 0 W/m 7,3 C 4,0 C 14,5 km/h (3 Bft) 99,69 %
21.12.2015 17:15 7,4 C 99 % 1029,7 hPa 0,0 l/m 11,6 km/h (2 Bft) S 175 0 min 0,000 mm 0,0 UV-I 0 W/m 7,3 C 3,7 C 17,7 km/h (3 Bft) 100,00 %
21.12.2015 17:20 7,4 C 99 % 1029,6 hPa 0,0 l/m 12,8 km/h (3 Bft) SW 223 0 min 0,000 mm 0,0 UV-I 0 W/m 7,3 C 3,1 C 19,3 km/h (3 Bft) 100,00 %
21.12.2015 17:25 7,4 C 99 % 1029,6 hPa 0,0 l/m 10,3 km/h (2 Bft) S-SW 209 0 min 0,000 mm 0,0 UV-I 0 W/m 7,3 C 4,5 C 16,1 km/h (3 Bft) 99,08 %
21.12.2015 17:30 7,4 C 99 % 1029,6 hPa 0,0 l/m 9,5 km/h (2 Bft) S-SO 165 0 min 0,000 mm 0,0 UV-I 0 W/m 7,3 C 5,1 C 14,5 km/h (3 Bft) 100,00 %
21.12.2015 17:35 7,4 C 99 % 1029,4 hPa 0,0 l/m 9,4 km/h (2 Bft) S 178 0 min 0,000 mm 0,0 UV-I 0 W/m 7,3 C 5,1 C 19,3 km/h (3 Bft) 100,00 %
21.12.2015 17:40 7,5 C 99 % 1029,4 hPa 0,0 l/m 8,9 km/h (2 Bft) S-SW 206 0 min 0,000 mm 0,0 UV-I 0 W/m 7,4 C 5,6 C 14,5 km/h (3 Bft) 100,00 %
21.12.2015 17:45 7,5 C 98 % 1029,4 hPa 0,0 l/m 7,8 km/h (2 Bft) S 189 0 min 0,000 mm 0,0 UV-I 0 W/m 7,2 C 6,4 C 16,1 km/h (3 Bft) 100,00 %
21.12.2015 17:50 7,5 C 98 % 1029,3 hPa 0,0 l/m 5,1 km/h (1 Bft) S-SO 160 0 min 0,000 mm 0,0 UV-I 0 W/m 7,2 C 7,5 C 11,3 km/h (2 Bft) 99,15 %
21.12.2015 17:55 7,4 C 98 % 1029,3 hPa 0,0 l/m 2,4 km/h (1 Bft) S-SW 193 0 min 0,000 mm 0,0 UV-I 0 W/m 7,1 C 7,4 C 6,4 km/h (2 Bft) 98,31 %
21.12.2015 18:00 7,4 C 98 % 1029,3 hPa 0,0 l/m 1,8 km/h (1 Bft) S 188 0 min 0,000 mm 0,0 UV-I 0 W/m 7,1 C 7,4 C 4,8 km/h (1 Bft) 99,11 %
21.12.2015 18:05 7,2 C 98 % 1029,3 hPa 0,0 l/m 1,1 km/h (1 Bft) S 188 0 min 0,000 mm 0,0 UV-I 0 W/m 6,9 C 7,2 C 3,2 km/h (1 Bft) 100,00 %
21.12.2015 18:10 7,0 C 98 % 1029,3 hPa 0,0 l/m 0,2 km/h (0 Bft) S 187 0 min 0,000 mm 0,0 UV-I 0 W/m 6,7 C 7,0 C 1,6 km/h (1 Bft) 97,25 %
21.12.2015 18:15 6,9 C 98 % 1029,3 hPa 0,0 l/m 1,9 km/h (1 Bft) O-NO 57 0 min 0,000 mm 0,0 UV-I 0 W/m 6,6 C 6,9 C 4,8 km/h (1 Bft) 95,87 %
21.12.2015 18:20 6,7 C 98 % 1029,3 hPa 0,0 l/m 2,9 km/h (1 Bft) NO 55 0 min 0,000 mm 0,0 UV-I 0 W/m 6,4 C 6,7 C 4,8 km/h (1 Bft) 94,74 %
21.12.2015 18:25 6,4 C 98 % 1029,4 hPa 0,0 l/m 4,2 km/h (1 Bft) NO 53 0 min 0,000 mm 0,0 UV-I 0 W/m 6,1 C 6,4 C 6,4 km/h (2 Bft) 95,04 %
21.12.2015 18:30 5,8 C 98 % 1029,4 hPa 0,0 l/m 6,3 km/h (2 Bft) NO 39 0 min 0,000 mm 0,0 UV-I 0 W/m 5,5 C 5,8 C 9,7 km/h (2 Bft) 97,32 %
21.12.2015 18:35 5,5 C 98 % 1029,5 hPa 0,0 l/m 5,4 km/h (1 Bft) N-NO 30 0 min 0,000 mm 0,0 UV-I 0 W/m 5,2 C 5,5 C 8,0 km/h (2 Bft) 95,50 %
21.12.2015 18:40 5,4 C 98 % 1029,5 hPa 0,0 l/m 2,1 km/h (1 Bft) NO 34 0 min 0,000 mm 0,0 UV-I 0 W/m 5,1 C 5,4 C 4,8 km/h (1 Bft) 97,69 %
21.12.2015 18:45 5,3 C 99 % 1029,5 hPa 0,0 l/m 2,9 km/h (1 Bft) O-NO 57 0 min 0,000 mm 0,0 UV-I 0 W/m 5,2 C 5,3 C 4,8 km/h (1 Bft) 98,15 %
21.12.2015 18:50 5,2 C 98 % 1029,5 hPa 0,0 l/m 1,8 km/h (1 Bft) N-NO 32 0 min 0,000 mm 0,0 UV-I 0 W/m 4,9 C 5,2 C 6,4 km/h (2 Bft) 99,17 %
21.12.2015 18:55 5,1 C 99 % 1029,6 hPa 0,0 l/m 2,6 km/h (1 Bft) N 360 0 min 0,000 mm 0,0 UV-I 0 W/m 5,0 C 5,1 C 6,4 km/h (2 Bft) 98,31 %
21.12.2015 19:00 4,9 C 98 % 1029,5 hPa 0,0 l/m 3,5 km/h (1 Bft) O-NO 74 0 min 0,000 mm 0,0 UV-I 0 W/m 4,6 C 4,9 C 4,8 km/h (1 Bft) 99,12 %
21.12.2015 19:05 4,8 C 98 % 1029,5 hPa 0,0 l/m 2,4 km/h (1 Bft) NO 53 0 min 0,000 mm 0,0 UV-I 0 W/m 4,5 C 4,8 C 4,8 km/h (1 Bft) 100,00 %
21.12.2015 19:10 4,7 C 99 % 1029,6 hPa 0,0 l/m 2,4 km/h (1 Bft) NO 53 0 min 0,000 mm 0,0 UV-I 0 W/m 4,6 C 4,7 C 3,2 km/h (1 Bft) 100,00 %
21.12.2015 19:15 4,6 C 99 % 1029,6 hPa 0,0 l/m 2,4 km/h (1 Bft) NO 53 0 min 0,000 mm 0,0 UV-I 0 W/m 4,5 C 4,6 C 4,8 km/h (1 Bft) 98,35 %
21.12.2015 19:20 4,4 C 99 % 1029,7 hPa 0,0 l/m 2,9 km/h (1 Bft) O-NO 73 0 min 0,000 mm 0,0 UV-I 0 W/m 4,3 C 4,4 C 6,4 km/h (2 Bft) 100,00 %
21.12.2015 19:25 4,4 C 99 % 1029,7 hPa 0,0 l/m 1,8 km/h (1 Bft) O-NO 72 0 min 0,000 mm 0,0 UV-I 0 W/m 4,3 C 4,4 C 4,8 km/h (1 Bft) 99,19 %
21.12.2015 19:31 4,4 C 99 % 1029,7 hPa 0,0 l/m 2,6 km/h (1 Bft) O-NO 70 0 min 0,000 mm 0,0 UV-I 0 W/m 4,3 C 4,4 C 4,8 km/h (1 Bft) 100,00 %
21.12.2015 19:35 4,3 C 99 % 1029,8 hPa 0,0 l/m 2,9 km/h (1 Bft) O-SO 116 0 min 0,000 mm 0,0 UV-I 0 W/m 4,2 C 4,3 C 6,4 km/h (2 Bft) 97,83 %
21.12.2015 19:40 4,3 C 99 % 1029,8 hPa 0,0 l/m 3,4 km/h (1 Bft) SO 128 0 min 0,000 mm 0,0 UV-I 0 W/m 4,2 C 4,3 C 6,4 km/h (2 Bft) 100,00 %
21.12.2015 19:45 4,4 C 99 % 1029,8 hPa 0,0 l/m 1,1 km/h (1 Bft) SO 129 0 min 0,000 mm 0,0 UV-I 0 W/m 4,3 C 4,4 C 3,2 km/h (1 Bft) 100,00 %
21.12.2015 19:50 4,3 C 99 % 1029,8 hPa 0,0 l/m 0,7 km/h (0 Bft) SO 134 0 min 0,000 mm 0,0 UV-I 0 W/m 4,2 C 4,3 C 3,2 km/h (1 Bft) 99,03 %
21.12.2015 19:55 4,3 C 99 % 1029,7 hPa 0,0 l/m 1,7 km/h (1 Bft) S 176 0 min 0,000 mm 0,0 UV-I 0 W/m 4,2 C 4,3 C 4,8 km/h (1 Bft) 98,45 %
21.12.2015 20:00 4,4 C 99 % 1029,8 hPa 0,0 l/m 1,7 km/h (1 Bft) S-SO 165 0 min 0,000 mm 0,0 UV-I 0 W/m 4,3 C 4,4 C 6,4 km/h (2 Bft) 100,00 %
21.12.2015 20:05 4,9 C 99 % 1029,8 hPa 0,0 l/m 2,0 km/h (1 Bft) S-SO 154 0 min 0,000 mm 0,0 UV-I 0 W/m 4,8 C 4,9 C 4,8 km/h (1 Bft) 100,00 %
21.12.2015 20:10 5,0 C 99 % 1029,9 hPa 0,0 l/m 2,5 km/h (1 Bft) S-SO 163 0 min 0,000 mm 0,0 UV-I 0 W/m 4,9 C 5,0 C 6,4 km/h (2 Bft) 99,24 %
21.12.2015 20:15 5,2 C 99 % 1029,7 hPa 0,0 l/m 1,9 km/h (1 Bft) S 175 0 min 0,000 mm 0,0 UV-I 0 W/m 5,1 C 5,2 C 6,4 km/h (2 Bft) 96,33 %
21.12.2015 20:20 5,4 C 99 % 1029,8 hPa 0,0 l/m 2,8 km/h (1 Bft) S-SW 202 0 min 0,000 mm 0,0 UV-I 0 W/m 5,3 C 5,4 C 8,0 km/h (2 Bft) 97,56 %
21.12.2015 20:25 5,1 C 99 % 1029,9 hPa 0,0 l/m 4,2 km/h (1 Bft) S-SW 207 0 min 0,000 mm 0,0 UV-I 0 W/m 5,0 C 5,1 C 8,0 km/h (2 Bft) 98,17 %
21.12.2015 20:30 4,9 C 99 % 1030,1 hPa 0,0 l/m 3,9 km/h (1 Bft) S-SW 192 0 min 0,000 mm 0,0 UV-I 0 W/m 4,8 C 4,9 C 6,4 km/h (2 Bft) 95,87 %
21.12.2015 20:35 5,2 C 99 % 1030,2 hPa 0,0 l/m 2,8 km/h (1 Bft) S-SW 192 0 min 0,000 mm 0,0 UV-I 0 W/m 5,1 C 5,2 C 4,8 km/h (1 Bft) 97,56 %
21.12.2015 20:40 5,4 C 99 % 1030,2 hPa 0,0 l/m 4,2 km/h (1 Bft) SW 227 0 min 0,000 mm 0,0 UV-I 0 W/m 5,3 C 5,4 C 6,4 km/h (2 Bft) 97,32 %
21.12.2015 20:45 5,6 C 99 % 1030,2 hPa 0,0 l/m 3,4 km/h (1 Bft) SW 227 0 min 0,000 mm 0,0 UV-I 0 W/m 5,5 C 5,6 C 4,8 km/h (1 Bft) 96,67 %
21.12.2015 20:50 5,3 C 99 % 1030,2 hPa 0,0 l/m 3,9 km/h (1 Bft) SW 227 0 min 0,000 mm 0,0 UV-I 0 W/m 5,2 C 5,3 C 6,4 km/h (2 Bft) 99,08 %
21.12.2015 20:55 5,3 C 99 % 1030,3 hPa 0,0 l/m 4,3 km/h (1 Bft) SW 228 0 min 0,000 mm 0,0 UV-I 0 W/m 5,2 C 5,3 C 6,4 km/h (2 Bft) 100,00 %
21.12.2015 21:00 5,3 C 99 % 1030,4 hPa 0,0 l/m 4,8 km/h (1 Bft) SW 225 0 min 0,000 mm 0,0 UV-I 0 W/m 5,2 C 5,3 C 6,4 km/h (2 Bft) 97,37 %
21.12.2015 21:05 5,4 C 99 % 1030,4 hPa 0,0 l/m 4,0 km/h (1 Bft) W-SW 238 0 min 0,000 mm 0,0 UV-I 0 W/m 5,3 C 5,4 C 6,4 km/h (2 Bft) 98,92 %
21.12.2015 21:10 5,4 C 98 % 1030,4 hPa 0,0 l/m 4,8 km/h (1 Bft) W-SW 247 0 min 0,000 mm 0,0 UV-I 0 W/m 5,1 C 5,4 C 6,4 km/h (2 Bft) 98,25 %
21.12.2015 21:15 5,3 C 98 % 1030,4 hPa 0,0 l/m 4,4 km/h (1 Bft) SW 232 0 min 0,000 mm 0,0 UV-I 0 W/m 5,0 C 5,3 C 6,4 km/h (2 Bft) 100,00 %
21.12.2015 21:25 5,1 C 98 % 1030,3 hPa 0,0 l/m 2,5 km/h (1 Bft) SW 214 0 min 0,000 mm 0,0 UV-I 0 W/m 4,8 C 5,1 C 4,8 km/h (1 Bft) 99,30 %
21.12.2015 21:30 5,3 C 99 % 1030,3 hPa 0,0 l/m 2,5 km/h (1 Bft) SW 214 0 min 0,000 mm 0,0 UV-I 0 W/m 5,2 C 5,3 C 4,8 km/h (1 Bft) 99,12 %
21.12.2015 21:45 4,9 C 98 % 1030,4 hPa 0,0 l/m 4,2 km/h (1 Bft) S-SW 207 0 min 0,000 mm 0,0 UV-I 0 W/m 4,6 C 4,9 C 6,4 km/h (2 Bft) 99,72 %
21.12.2015 21:50 4,9 C 98 % 1030,3 hPa 0,0 l/m 6,5 km/h (2 Bft) S-SW 204 0 min 0,000 mm 0,0 UV-I 0 W/m 4,6 C 4,8 C 8,0 km/h (2 Bft) 99,13 %
21.12.2015 21:55 4,9 C 98 % 1030,4 hPa 0,0 l/m 6,9 km/h (2 Bft) SW 236 0 min 0,000 mm 0,0 UV-I 0 W/m 4,6 C 4,5 C 9,7 km/h (2 Bft) 100,00 %
21.12.2015 22:00 5,1 C 98 % 1030,4 hPa 0,0 l/m 7,9 km/h (2 Bft) SW 219 0 min 0,000 mm 0,0 UV-I 0 W/m 4,8 C 3,8 C 12,9 km/h (3 Bft) 100,00 %
21.12.2015 22:05 5,3 C 98 % 1030,4 hPa 0,0 l/m 7,4 km/h (2 Bft) SW 214 0 min 0,000 mm 0,0 UV-I 0 W/m 5,0 C 4,4 C 11,3 km/h (2 Bft) 98,43 %
21.12.2015 22:10 5,4 C 98 % 1030,4 hPa 0,0 l/m 6,9 km/h (2 Bft) S-SW 213 0 min 0,000 mm 0,0 UV-I 0 W/m 5,1 C 5,0 C 9,7 km/h (2 Bft) 100,00 %
21.12.2015 22:15 5,5 C 97 % 1030,4 hPa 0,0 l/m 6,7 km/h (2 Bft) S 175 0 min 0,000 mm 0,0 UV-I 0 W/m 5,1 C 5,3 C 9,7 km/h (2 Bft) 97,39 %
21.12.2015 22:20 5,5 C 97 % 1030,3 hPa 0,0 l/m 7,3 km/h (2 Bft) S-SW 204 0 min 0,000 mm 0,0 UV-I 0 W/m 5,1 C 4,7 C 11,3 km/h (2 Bft) 100,00 %
21.12.2015 22:25 5,4 C 97 % 1030,3 hPa 0,0 l/m 7,4 km/h (2 Bft) S-SW 202 0 min 0,000 mm 0,0 UV-I 0 W/m 5,0 C 4,5 C 11,3 km/h (2 Bft) 99,17 %
21.12.2015 22:30 5,4 C 97 % 1030,3 hPa 0,0 l/m 7,9 km/h (2 Bft) SW 221 0 min 0,000 mm 0,0 UV-I 0 W/m 5,0 C 4,1 C 11,3 km/h (2 Bft) 97,52 %
21.12.2015 22:35 5,4 C 97 % 1030,3 hPa 0,0 l/m 7,1 km/h (2 Bft) S-SW 192 0 min 0,000 mm 0,0 UV-I 0 W/m 5,0 C 4,8 C 9,7 km/h (2 Bft) 96,33 %
21.12.2015 22:40 5,4 C 97 % 1030,4 hPa 0,0 l/m 6,9 km/h (2 Bft) SW 227 0 min 0,000 mm 0,0 UV-I 0 W/m 5,0 C 5,0 C 11,3 km/h (2 Bft) 96,83 %
21.12.2015 22:45 5,7 C 97 % 1030,4 hPa 0,0 l/m 7,2 km/h (2 Bft) S-SW 209 0 min 0,000 mm 0,0 UV-I 0 W/m 5,3 C 5,0 C 11,3 km/h (2 Bft) 98,26 %
21.12.2015 22:50 5,9 C 96 % 1030,3 hPa 0,0 l/m 7,4 km/h (2 Bft) SW 231 0 min 0,000 mm 0,0 UV-I 0 W/m 5,3 C 5,0 C 11,3 km/h (2 Bft) 96,40 %
21.12.2015 22:55 5,9 C 95 % 1030,3 hPa 0,0 l/m 7,8 km/h (2 Bft) W-SW 239 0 min 0,000 mm 0,0 UV-I 0 W/m 5,2 C 4,7 C 11,3 km/h (2 Bft) 96,77 %
21.12.2015 23:00 5,9 C 95 % 1030,3 hPa 0,0 l/m 9,2 km/h (2 Bft) SW 221 0 min 0,000 mm 0,0 UV-I 0 W/m 5,2 C 3,6 C 12,9 km/h (3 Bft) 97,17 %
21.12.2015 23:05 5,9 C 95 % 1030,4 hPa 0,0 l/m 8,0 km/h (2 Bft) SW 236 0 min 0,000 mm 0,0 UV-I 0 W/m 5,2 C 4,5 C 14,5 km/h (3 Bft) 98,33 %
21.12.2015 23:10 5,8 C 95 % 1030,4 hPa 0,0 l/m 8,3 km/h (2 Bft) SW 217 0 min 0,000 mm 0,0 UV-I 0 W/m 5,1 C 4,2 C 12,9 km/h (3 Bft) 98,39 %
21.12.2015 23:15 6,0 C 94 % 1030,3 hPa 0,0 l/m 8,3 km/h (2 Bft) S-SW 211 0 min 0,000 mm 0,0 UV-I 0 W/m 5,1 C 4,4 C 14,5 km/h (3 Bft) 99,11 %
21.12.2015 23:20 6,2 C 93 % 1030,3 hPa 0,0 l/m 7,1 km/h (2 Bft) SW 223 0 min 0,000 mm 0,0 UV-I 0 W/m 5,2 C 5,6 C 12,9 km/h (3 Bft) 98,33 %
21.12.2015 23:25 6,1 C 93 % 1030,3 hPa 0,0 l/m 7,3 km/h (2 Bft) SW 215 0 min 0,000 mm 0,0 UV-I 0 W/m 5,1 C 5,3 C 12,9 km/h (3 Bft) 100,00 %
21.12.2015 23:30 6,2 C 93 % 1030,3 hPa 0,0 l/m 7,7 km/h (2 Bft) SW 216 0 min 0,000 mm 0,0 UV-I 0 W/m 5,2 C 5,1 C 12,9 km/h (3 Bft) 100,00 %
21.12.2015 23:35 6,0 C 93 % 1030,4 hPa 0,0 l/m 8,0 km/h (2 Bft) SW 215 0 min 0,000 mm 0,0 UV-I 0 W/m 5,0 C 4,7 C 14,5 km/h (3 Bft) 99,08 %
21.12.2015 23:40 5,8 C 93 % 1030,4 hPa 0,0 l/m 7,3 km/h (2 Bft) SW 232 0 min 0,000 mm 0,0 UV-I 0 W/m 4,8 C 5,0 C 11,3 km/h (2 Bft) 100,00 %
21.12.2015 23:45 5,8 C 93 % 1030,4 hPa 0,0 l/m 7,2 km/h (2 Bft) SW 223 0 min 0,000 mm 0,0 UV-I 0 W/m 4,8 C 5,1 C 14,5 km/h (3 Bft) 99,10 %
21.12.2015 23:50 5,9 C 92 % 1030,4 hPa 0,0 l/m 6,1 km/h (2 Bft) SW 227 0 min 0,000 mm 0,0 UV-I 0 W/m 4,7 C 5,9 C 9,7 km/h (2 Bft) 99,15 %
21.12.2015 23:55 5,9 C 92 % 1030,5 hPa 0,0 l/m 7,5 km/h (2 Bft) W-SW 242 0 min 0,000 mm 0,0 UV-I 0 W/m 4,7 C 5,0 C 11,3 km/h (2 Bft) 98,29 %
_ Min-Zeit 07:55 23:50 02:50 - 05:50 - - - - - - 07:55 14:55 05:50 06:00
Minimum _ 1,7 C 92 % 1026,0 hPa - 0,0 km/h (0 Bft) - - - - - - 1,6 C -0,5 C 0,0 km/h (0 Bft) 93,50 %
_ Max-Zeit 17:40 12:00 23:55 14:55 14:55 - - 00:00 11:00 00:00 11:35 17:40 17:50 14:50 00:15
Maximum _ 7,5 C 100 % 1030,5 hPa 0,2 l/m 14,0 km/h
W-SW (3 Bft)
- - 0 min 0,026 mm 0,0 UV-I 126 W/m 7,4 C 7,5 C 19,3 km/h
W (3 Bft)
100,00 %
Durchschnitt _ 3,6 C 99 % 1028,4 hPa #0,2 l/m 3,4 km/h (1 Bft) SW - #0 min. #0,152 mm 0,0 UV-I 46 W/m 3,4 C 3,3 C 6,4 km/h (2 Bft) 98,54 %